Location: Newark
(48.6461°N, 4.3644°W)
Time: 16:32:04
(UTC+00:00)

Vanguard 1 - Visible Passes

Search period start: 19 January 2021 00:00
Search period end: 29 January 2021 00:00
Orbit: 648 x 3834 km, 34.3° (Epoch: 19 January)

Date Brightness Start Highest point End Pass type
(mag) Time Alt. Az. Time Alt. Az. Time Alt. Az.
19 Jan 13.4 17:31:23 10° WSW 17:53:24 52° S 18:09:48 10° ESE visible
19 Jan 13.2 19:58:09 10° W 20:15:56 34° SW 20:26:57 13° SSE visible
20 Jan 13.4 17:52:30 10° W 18:14:13 49° SSW 18:30:16 10° SE visible
20 Jan 13.3 20:19:56 10° W 20:36:08 29° SW 20:47:15 11° S visible
21 Jan 13.4 18:13:43 10° W 18:34:55 46° SSW 18:50:34 10° SE visible
21 Jan 13.4 20:42:05 10° W 20:56:10 23° SW 21:06:40 10° S visible
22 Jan 13.5 18:35:03 10° W 18:55:30 41° SSW 19:10:40 10° SE visible
22 Jan 13.6 21:04:56 10° W 21:16:04 18° SW 21:24:55 10° SSW visible
23 Jan 13.5 18:56:31 10° W 19:15:56 36° SW 19:30:31 10° SSE visible
23 Jan 13.8 21:29:34 10° WSW 21:35:50 12° WSW 21:41:21 10° SW visible
24 Jan 13.6 19:18:13 10° W 19:36:12 31° SW 19:50:03 10° SSE visible
25 Jan 13.7 17:12:56 10° W 17:34:10 47° SSW 17:52:15 10° SE visible
25 Jan 13.7 19:40:15 10° W 19:56:20 25° SW 20:09:06 10° S visible
26 Jan 13.8 17:34:10 10° W 17:54:49 43° SSW 18:12:23 10° SE visible
26 Jan 13.9 20:02:54 10° W 20:16:19 20° SW 20:27:26 10° SSW visible
27 Jan 13.8 17:55:33 10° W 18:15:21 38° SSW 18:32:14 10° SSE visible
27 Jan 14.1 20:26:51 10° W 20:36:11 14° SW 20:44:24 10° SSW visible
28 Jan 13.9 18:17:09 10° W 18:35:45 32° SW 18:51:44 10° SSE visible
